Bakersfield, CA

10:45 PM PDT on March 26, 2017 (GMT -0700)
Meadows

Weather History for KBFL - September, 2012

Change the Weather History Date:

Monday, September 24, 2012

  Actual Average Record
Temperature  
Mean Temperature 83 °F 75 °F  
Max Temperature 97 °F 88 °F 103 °F (1919)
Min Temperature 69 °F 62 °F 35 °F (1908)
Degree Days  
Heating Degree Days 0    
Month to date heating degree days 0  
Since 1 July heating degree days 0  
Cooling Degree Days 18    
Month to date cooling degree days 401  
Year to date cooling degree days 2341  
Growing Degree Days 33 (Base 50)    
Moisture  
Dew Point 37 °F    
Average Humidity 22    
Maximum Humidity 35    
Minimum Humidity 9    
Precipitation  
Precipitation 0.00 in 0.01 in 0.50 in (1908)
Month to date precipitation T 0.06  
Year to date precipitation 3.64 4.49  
Since 1 July precipitation 0.02  
Snow  
Snow 0.00 in - - ()
Month to date snowfall 0.0  
Since 1 July snowfall 0.0  
Since 1 September snowfall 0.0  
Snow Depth 0.00 in    
Sea Level Pressure  
Sea Level Pressure 29.85 in    
Wind  
Wind Speed 5 mph (North)    
Max Wind Speed 16 mph    
Max Gust Speed 21 mph    
Visibility 10 miles    
Events      
T = Trace of Precipitation, MM = Missing Value Source: NWS Daily Summary

Daily Weather History Graph

Daily Weather History Graph

Search for Another Location

Airport or City:

Trip Planner

Search our weather history database for the weather conditions in past years. The results will help you decide how hot, cold, wet, or windy it might be!

Date:

Astronomy

Sep. 24, 2012 Rise Set
Actual Time 6:46 AM PDT 6:49 PM PDT
Civil Twilight 6:20 AM PDT 7:14 PM PDT
Nautical Twilight 5:51 AM PDT 7:44 PM PDT
Astronomical Twilight 5:21 AM PDT 8:14 PM PDT
Moon 3:29 PM PDT (9/24) 1:18 AM PDT (9/24)
Length of Visible Light 12h 53m
Length of Day
12h 03m
Waxing Gibbous, 71% of the Moon is Illuminated
Sep 24
Waxing Gibbous
Sep 29
Full
Oct 8
Last Quarter
Oct 15
New
Oct 21
First Quarter

Hourly Weather History & Observations

Time (PDT) Temp. Dew Point Humidity Pressure Visibility Wind Dir Wind Speed Gust Speed Precip Events Conditions
12:54 AM 82.0 °F 37.0 °F 20% 29.90 in 10.0 mi NNE 10.4 mph - N/A   Clear
1:54 AM 81.0 °F 35.1 °F 19% 29.90 in 10.0 mi NNE 6.9 mph - N/A   Clear
2:54 AM 79.0 °F 32.0 °F 18% 29.89 in 10.0 mi North 6.9 mph - N/A   Clear
3:54 AM 75.0 °F 41.0 °F 29% 29.89 in 10.0 mi SE 5.8 mph - N/A   Clear
4:54 AM 73.0 °F 43.0 °F 34% 29.90 in 10.0 mi Calm Calm - N/A   Clear
5:54 AM 72.0 °F 42.1 °F 34% 29.90 in 10.0 mi Calm Calm - N/A   Clear
6:54 AM 71.1 °F 42.1 °F 35% 29.90 in 10.0 mi ESE 3.5 mph - N/A   Clear
7:54 AM 73.9 °F 43.0 °F 33% 29.91 in 10.0 mi Calm Calm - N/A   Clear
8:54 AM 81.0 °F 42.1 °F 25% 29.91 in 10.0 mi East 4.6 mph - N/A   Clear
9:54 AM 84.0 °F 41.0 °F 22% 29.91 in 10.0 mi SSE 4.6 mph - N/A   Clear
10:54 AM 89.1 °F 42.1 °F 19% 29.90 in 10.0 mi Variable 4.6 mph - N/A   Clear
11:54 AM 91.9 °F 41.0 °F 17% 29.87 in 10.0 mi SSW 4.6 mph - N/A   Clear
12:54 PM 95.0 °F 39.9 °F 15% 29.84 in 10.0 mi WSW 4.6 mph - N/A   Clear
1:54 PM 95.0 °F 41.0 °F 15% 29.81 in 10.0 mi NNW 5.8 mph - N/A   Clear
2:54 PM 96.1 °F 37.0 °F 13% 29.78 in 10.0 mi Variable 3.5 mph - N/A   Partly Cloudy
3:54 PM 97.0 °F 32.0 °F 10% 29.77 in 10.0 mi NW 12.7 mph 19.6 mph N/A   Clear
4:54 PM 96.1 °F 28.0 °F 9% 29.77 in 10.0 mi NNW 10.4 mph - N/A   Clear
5:54 PM 93.0 °F 30.0 °F 11% 29.76 in 10.0 mi NW 10.4 mph - N/A   Clear
6:54 PM 84.0 °F 28.9 °F 14% 29.77 in 10.0 mi NNW 10.4 mph - N/A   Clear
7:54 PM 80.1 °F 34.0 °F 19% 29.79 in 9.0 mi NNW 11.5 mph - N/A   Clear
8:54 PM 77.0 °F 36.0 °F 23% 29.81 in 10.0 mi NNW 9.2 mph - N/A   Clear
9:54 PM 75.0 °F 35.1 °F 23% 29.84 in 10.0 mi North 8.1 mph - N/A   Clear
10:54 PM 73.9 °F 36.0 °F 25% 29.86 in 10.0 mi North 8.1 mph - N/A   Clear
11:54 PM 70.0 °F 37.0 °F 30% 29.86 in 10.0 mi NNE 4.6 mph - N/A   Clear